This demonstration page uses our WeatherBlox Daily Observations layout. Learn more.

Left ArrowRight Arrow

40.92945, -100.16068

Hourly Observations for September 5, 2019

Temp ( °F °C ) Dew Point ( °F °C ) Humidity (%) Winds ( mph kmh ) Pressure ( in mb ) Visibility ( mi km ) Precip ( " mm )
12:15 am 00:15 Clear 65 18.4 62 16.6 89 89 SE 7 11 29.99 1015 10 16 0.00 0.00
12:35 am 00:35 Clear 65 18.5 62 16.8 90 90 SE 6 9 29.98 1015 10 16 0.00 0.00
12:55 am 00:55 Clear 65 18.5 63 17.2 92 92 SE 6 9 29.97 1015 10 16 0.00 0.00
1:15 am 01:15 Clear 66 19 64 17.7 92 92 SSE 8 13 29.97 1015 10 16 0.00 0.00
1:35 am 01:35 Clear 66 18.9 64 18 95 95 SSE 8 13 29.97 1015 10 16 0.00 0.00
1:55 am 01:55 Clear 66 18.8 64 18 95 95 SSE 6 9 29.97 1015 10 16 0.00 0.00
2:15 am 02:15 Clear 65 18.6 64 18 96 96 SSE 6 9 29.96 1015 10 16 0.00 0.00
2:35 am 02:35 Clear 66 19 65 18.1 95 95 SE 6 9 29.96 1015 10 16 0.00 0.00
2:55 am 02:55 Clear 66 19.1 65 18.1 94 94 SE 5 7 29.95 1014 10 16 0.00 0.00
3:15 am 03:15 Clear 65 18.2 63 17.3 95 95 E 3 6 29.96 1014 10 16 0.00 0.00
3:35 am 03:35 Clear 64 17.5 63 17.1 98 98 ESE 3 6 29.95 1014 10 16 0.00 0.00
3:55 am 03:55 Clear 65 18.5 64 17.6 95 95 ESE 6 9 29.94 1014 10 16 0.00 0.00
4:15 am 04:15 Clear 66 19 64 17.6 92 92 SE 6 9 29.92 1013 10 16 0.00 0.00
4:35 am 04:35 Clear 67 19.2 64 17.5 90 90 SSE 6 9 29.92 1013 10 16 0.00 0.00
4:55 am 04:55 Clear 66 19 64 17.5 91 91 S 10 17 29.92 1013 10 16 0.00 0.00
5:15 am 05:15 Clear 65 18.6 63 17.2 92 92 S 3 6 29.92 1013 10 16 0.00 0.00
5:35 am 05:35 Clear 66 18.8 63 17 89 89 Calm 29.92 1013 10 16 0.00 0.00
5:55 am 05:55 Clear 66 18.7 62 16.8 89 89 S 7 11 29.91 1013 10 16 0.00 0.00
6:15 am 06:15 Clear 64 17.7 61 16.3 92 92 SSE 5 7 29.93 1014 10 16 0.00 0.00
6:35 am 06:35 Clear 64 17.8 62 16.5 92 92 SSE 5 7 29.93 1014 10 16 0.00 0.00
6:55 am 06:55 Clear 62 16.6 60 15.8 95 95 SSE 3 6 29.94 1014 10 16 0.00 0.00
7:15 am 07:15 Sunny 62 16.7 61 16 96 96 SSE 6 9 29.94 1014 10 16 0.00 0.00
7:35 am 07:35 Sunny 62 16.5 60 15.8 96 96 SSE 3 6 29.95 1014 10 16 0.00 0.00
7:55 am 07:55 Sunny 63 17.1 61 16.2 94 94 Calm 29.95 1014 10 16 0.00 0.00
8:15 am 08:15 Sunny 65 18.5 62 16.7 89 89 SE 3 6 29.93 1013 10 16 0.00 0.00
8:35 am 08:35 Sunny 66 19.1 62 16.9 87 87 SSE 5 7 29.92 1013 10 16 0.00 0.00
8:55 am 08:55 Sunny 68 19.9 63 17.1 84 84 SSE 3 6 29.91 1013 10 16 0.00 0.00
9:15 am 09:15 Sunny 70 21.1 64 17.5 80 80 S 5 7 29.90 1013 10 16 0.00 0.00
9:35 am 09:35 Sunny 73 22.6 64 17.5 73 73 SSW 3 6 29.89 1012 10 16 0.00 0.00
9:55 am 09:55 Sunny 75 23.8 64 17.7 69 69 SSW 3 6 29.88 1012 10 16 0.00 0.00
10:15 am 10:15 Sunny 77 24.9 63 17.2 62 62 SSW 6 9 29.87 1012 10 16 0.00 0.00
10:35 am 10:35 Sunny 78 25.7 64 17.8 62 62 SW 5 7 29.86 1011 10 16 0.00 0.00
10:55 am 10:55 Sunny 80 26.4 65 18.1 60 60 SW 5 7 29.86 1011 10 16 0.00 0.00
11:15 am 11:15 Sunny 81 27 64 17.8 57 57 W 3 6 29.86 1011 10 16 0.00 0.00
11:35 am 11:35 Sunny 82 27.7 64 18 56 56 SW 3 6 29.85 1011 10 16 0.00 0.00
11:55 am 11:55 Sunny 83 28.5 65 18.5 55 55 SSW 5 7 29.84 1011 7 11 0.00 0.00
12:15 pm 12:15 Hazy 84 28.9 65 18.6 54 54 S 3 6 29.84 1010 4 6 0.00 0.00
12:35 pm 12:35 Sunny 85 29.4 67 19.2 54 54 SSW 3 6 29.83 1010 7 11 0.00 0.00
12:55 pm 12:55 Hazy 86 29.8 67 19.6 54 54 Calm 29.84 1011 5 8 0.00 0.00
1:15 pm 13:15 Sunny 86 30 67 19.4 53 53 S 3 6 29.84 1010 7 11 0.00 0.00
1:35 pm 13:35 Hazy 88 31 68 19.9 52 52 S 7 11 29.82 1010 5 8 0.00 0.00
1:55 pm 13:55 Sunny 89 31.5 68 20 50 50 SSW 5 7 29.83 1010 10 16 0.00 0.00
2:15 pm 14:15 Sunny 89 31.8 67 19.5 48 48 S 6 9 29.81 1010 10 16 0.00 0.00
2:35 pm 14:35 Sunny 90 32.1 67 19.6 48 48 SSW 5 7 29.82 1010 7 11 0.00 0.00
2:55 pm 14:55 Sunny 91 32.5 67 19.6 46 46 Calm 29.81 1009 7 11 0.00 0.00
3:15 pm 15:15 Sunny 90 32.2 68 19.8 48 48 WSW 3 6 29.81 1010 10 16 0.00 0.00
3:35 pm 15:35 Sunny 91 33 67 19.6 45 45 Calm 29.81 1009 10 16 0.00 0.00
3:55 pm 15:55 Sunny 91 32.8 67 19.4 45 45 WSW 5 7 29.81 1009 10 16 0.00 0.00
4:15 pm 16:15 Sunny 92 33.5 68 20.1 45 45 SW 5 7 29.80 1009 10 16 0.00 0.00
4:35 pm 16:35 Sunny 91 33 68 19.8 46 46 Calm 29.81 1009 10 16 0.00 0.00
4:55 pm 16:55 Sunny 92 33.1 68 20.1 46 46 NNW 5 7 29.79 1009 10 16 0.00 0.00
5:15 pm 17:15 Sunny 91 32.8 68 20 47 47 Calm 29.81 1009 10 16 0.00 0.00
5:35 pm 17:35 Sunny 91 32.5 71 21.4 52 52 N 5 7 29.81 1009 10 16 0.00 0.00
5:55 pm 17:55 Sunny 90 32.3 72 22.1 55 55 NNW 6 9 29.81 1010 10 16 0.00 0.00
6:15 pm 18:15 Sunny 89 31.8 73 22.8 59 59 N 5 7 29.81 1010 10 16 0.00 0.00
6:35 pm 18:35 Sunny 88 31.1 73 22.5 60 60 N 6 9 29.83 1010 10 16 0.00 0.00
6:55 pm 18:55 Sunny 87 30.3 73 23 65 65 N 5 7 29.84 1010 10 16 0.00 0.00
7:15 pm 19:15 Sunny 85 29.5 72 22.3 65 65 N 9 15 29.85 1011 10 16 0.00 0.00
7:35 pm 19:35 Sunny 83 28.1 72 22.1 70 70 NNE 6 9 29.87 1012 10 16 0.00 0.00
7:55 pm 19:55 Sunny 79 26.2 72 22.2 79 79 N 7 11 29.89 1012 10 16 0.00 0.00
8:15 pm 20:15 Clear 78 25.5 71 21.7 80 80 NNE 6 9 29.91 1013 10 16 0.00 0.00
8:35 pm 20:35 Clear 75 24.1 71 21.6 86 86 NNE 6 9 29.92 1013 10 16 0.00 0.00
8:55 pm 20:55 Clear 74 23.3 71 21.4 89 89 N 8 13 29.93 1014 10 16 0.00 0.00
9:15 pm 21:15 Clear 73 23 70 21.3 90 90 N 6 9 29.95 1014 7 11 0.00 0.00
9:35 pm 21:35 Clear 73 22.5 70 21.3 93 93 N 7 11 29.96 1015 10 16 0.00 0.00
9:55 pm 21:55 Clear 74 23.1 71 21.7 92 92 N 7 11 29.97 1015 10 16 0.00 0.00
10:15 pm 22:15 Clear 73 23 71 21.8 93 93 N 9 15 29.98 1015 10 16 0.00 0.00
10:35 pm 22:35 Clear 74 23.3 71 21.7 91 91 NNE 10 17 29.98 1015 10 16 0.00 0.00
10:55 pm 22:55 Clear 74 23.3 71 21.6 90 90 NNE 12 19 29.98 1015 10 16 0.00 0.00
11:15 pm 23:15 Clear 74 23.1 71 21.6 91 91 NNE 13 20 29.99 1015 10 16 0.00 0.00
11:35 pm 23:35 Clear 73 22.8 71 21.5 92 92 NNE 15 24 29.99 1016 10 16 0.00 0.00
11:55 pm 23:55 Clear 73 22.5 71 21.4 94 94 NNE 14 22 29.99 1016 10 16 0.00 0.00

Powered by AerisWeather